Regional Weather Roundup
Issued by NWS

Home | Current Version | Previous Version | Graphics & Text | Print | Product List | Glossary On
Versions: 1 2 3 4 5 6 7 8 9 10 11 12 13 14 15 16 17 18 19 20 21 22 23 24 25 26 27 28 29 30 31 32 33 34 35 36 37 38 39 40 41 42 43 44 45 46 47 48 49 50
767
ASUS44 KMEG 201810
RWRTN
TENNESSEE HOURLY STATE WEATHER ROUNDUP
NATIONAL WEATHER SERVICE MEMPHIS TN
1200 PM CST MON FEB 20 2017

TNZ002-004-019-021-049-052-054-088>092-201900-
WEST TENNESSEE

CITY           SKY/WX    TMP DP  RH WIND       PRES   REMARKS
MEMPHIS INTL   CLOUDY    75  56  51 S10       30.08F
NWS MEMPHIS      N/A     76 N/A N/A MISG        N/A
JACKSON        PTSUNNY   75  52  44 S8        30.10F
UNION CITY     SUNNY     70  48  46 CALM      30.09F
PARIS          SUNNY     70  50  49 S9        30.12F
HUNTINGDON     SUNNY     70  52  52 S8        30.10F
$$

TNZ008-025-027-028-033-062-065-066-201900-
NORTH MIDDLE TENNESSEE

CITY           SKY/WX    TMP DP  RH WIND       PRES   REMARKS
NASHVILLE      CLOUDY    71  45  39 SE8       30.15F
PORTLAND       SUNNY     70  48  46 S9        30.15F
CLARKSVILLE    CLOUDY    67  50  54 SE10      30.13F
SMYRNA         MOSUNNY   71  50  47 SE9       30.16F
COOKEVILLE     SUNNY     70  45  40 S5        30.16S
GALLATIN       SUNNY     70  48  46 SE7       30.17F
CROSSVILLE     CLOUDY    63  43  48 VRB5      30.20F
$$

TNZ061-075-076-078-094-096-097-201900-
SOUTH MIDDLE TENNESSEE

CITY           SKY/WX    TMP DP  RH WIND       PRES   REMARKS
FAYETTEVILLE   SUNNY     70  48  46 SE6       30.16F
TULLAHOMA      SUNNY     70  41  35 SE9       30.17F
MCMINNVILLE    SUNNY     72  45  37 CALM      30.16F
COLUMBIA       SUNNY     72  54  53 S5        30.13F
SHELBYVILLE    SUNNY     73  50  43 S7        30.16F
$$

TNZ017-018-042-046-047-201900-
NORTHEAST TENNESSEE

CITY           SKY/WX    TMP DP  RH WIND       PRES   REMARKS
TRI CITIES     MOSUNNY   65  42  43 CALM      30.18F
ELIZABETHTON   DRIZZLE   68  41  37 CALM      30.17F
$$

TNZ012-013-036-069-073-074-201900-
CENTRAL EAST TENNESSEE

CITY           SKY/WX    TMP DP  RH WIND       PRES   REMARKS
KNOXVILLE      CLOUDY    64  45  49 CALM      30.17F
OAK RIDGE      CLOUDY    64  45  49 CALM      30.19F
GATLINBURG     SUNNY     64  45  48 NW5       30.17F
MORRISTOWN     SUNNY     64  43  45 N6        30.17F
JACKSBORO      SUNNY     63  46  55 CALM      30.21F
$$

TNZ083-085-099-201900-
SOUTHEAST TENNESSEE

CITY           SKY/WX    TMP DP  RH WIND       PRES   REMARKS
CHATTANOOGA    CLOUDY    64  47  53 CALM      30.19F
$$

SKY/WX REPORTED AS FAIR MEANS FEW OR NO CLOUDS BELOW
12 THOUSAND FEET.





USA.gov is the U.S. government's official web portal to all federal, state and local government web resources and services.